Wind_Speed
31 31 31 32 32 32 32 30 30 31 31 31 30 28 27 29 29 27 24 22 20 19 18 18 19 20 21 21 21 20 20 19 19 19 19 19 18 17 17 17 18 18 17 16 15 15 16 16 14 13 12 13 11 9 9 9 8 9 10 10 12 11 10 11 9 8 11 13 14 14 15 15 16 16 18 21 24 25 27 29 30 31 31 30 30
32 31 31 32 33 33 33 31 30 31 31 30 30 29 28 28 27 25 23 21 20 19 19 19 19 20 21 21 21 21 20 19 19 19 20 20 19 17 17 18 19 18 18 16 15 14 15 15 15 12 11 11 10 10 11 10 8 9 9 9 9 9 8 9 8 7 10 13 15 15 15 15 15 17 20 23 25 26 28 30 30 31 30 30 30
32 31 31 32 33 33 33 31 31 32 32 30 30 30 28 27 26 24 22 21 20 19 19 19 20 21 22 21 21 21 20 19 19 19 20 20 20 18 17 18 19 19 18 17 16 15 15 15 14 12 11 11 11 10 10 8 9 9 9 9 8 7 6 6 7 7 9 13 15 16 15 15 15 18 22 23 24 27 29 30 31 31 31 30 30
32 32 31 32 33 33 33 32 32 33 33 31 30 30 28 25 24 23 22 21 20 20 19 19 21 22 22 22 22 21 20 20 20 19 20 20 20 19 18 19 19 19 18 17 15 14 15 15 14 12 11 12 11 10 9 7 7 8 8 7 6 5 5 6 7 8 9 11 14 14 14 15 15 19 22 22 24 27 29 31 31 32 33 31 31
33 33 32 32 33 33 33 33 33 34 34 32 30 28 26 25 23 22 22 22 21 20 20 20 22 23 23 23 23 22 22 21 20 20 20 20 20 19 19 19 18 17 17 16 15 14 15 15 14 13 12 12 12 11 9 7 6 6 6 4 4 4 5 5 7 8 9 11 13 13 14 15 16 19 21 22 24 28 30 32 32 32 34 34 33
34 33 33 33 34 34 33 34 34 34 33 31 29 28 27 25 23 23 23 23 21 20 21 22 23 24 23 23 23 23 23 21 21 21 22 21 20 19 19 19 18 17 17 16 15 15 15 15 14 13 12 12 12 12 10 8 6 6 6 4 3 4 5 5 7 8 10 11 12 14 15 16 17 19 20 20 23 26 28 32 34 33 34 36 36
34 34 33 34 34 33 34 34 35 35 32 31 30 29 27 25 24 25 25 23 22 22 23 23 24 24 23 24 24 24 23 22 21 22 22 21 21 20 20 20 19 19 17 16 16 15 15 15 14 13 13 12 13 13 11 9 7 6 5 4 4 4 4 5 6 8 10 10 12 15 15 15 17 18 17 18 21 24 25 28 31 33 34 35 36
34 33 33 34 33 33 34 34 35 34 31 30 30 28 26 25 25 26 25 23 23 24 24 24 24 24 24 24 25 24 23 23 23 23 22 22 22 22 22 22 21 19 18 16 16 16 15 15 14 13 12 11 12 12 11 9 7 5 3 3 3 4 5 5 6 9 10 10 11 13 14 15 15 16 16 17 20 23 25 25 26 30 33 33 34
35 34 33 34 33 33 34 33 34 34 31 30 30 28 27 27 26 26 24 23 24 24 24 25 25 25 25 25 25 24 24 24 24 24 23 23 24 23 22 22 21 20 19 18 17 16 15 14 13 11 10 9 10 11 11 8 5 4 4 5 5 5 6 6 8 10 11 10 9 11 12 14 15 16 17 18 19 21 24 25 25 28 30 32 34
34 33 32 33 33 33 34 34 33 33 32 30 30 30 29 27 26 26 24 23 25 25 25 25 25 25 26 26 25 24 24 24 24 24 24 25 25 24 23 22 22 22 21 19 17 15 14 13 11 10 9 8 9 10 10 8 6 6 7 7 6 7 7 7 8 9 10 10 9 10 11 13 15 16 16 18 19 21 23 25 25 27 27 27 30
34 34 33 33 34 34 34 34 33 33 32 31 30 30 30 28 28 27 25 25 26 26 26 26 26 26 27 26 25 25 25 24 24 24 24 24 25 24 23 23 22 22 21 20 18 16 14 11 10 10 10 10 10 10 10 9 8 8 7 6 6 5 5 6 7 7 8 9 9 9 9 11 14 15 16 17 18 21 24 25 25 26 25 21 20
34 34 34 34 34 34 34 34 33 33 33 32 31 31 30 30 30 28 26 26 27 27 27 27 26 26 27 26 25 25 24 23 23 23 23 23 23 23 23 23 22 21 20 20 18 16 13 11 11 12 12 12 12 11 11 10 9 7 5 4 3 3 3 4 5 5 6 7 8 9 9 11 14 16 17 18 19 22 25 26 26 26 26 23 21
33 33 34 35 35 34 35 34 34 33 33 32 32 31 31 31 31 28 27 28 28 27 28 28 26 26 27 27 26 25 23 22 22 22 21 22 22 22 21 21 20 20 20 19 17 14 13 13 15 15 14 14 13 12 11 9 7 4 3 2 0 2 4 5 5 5 5 6 7 10 11 12 15 17 18 20 22 23 25 27 27 26 27 27 26
33 33 33 34 36 35 35 34 34 33 33 33 32 31 31 32 31 29 28 29 29 28 28 28 26 26 27 27 26 25 24 24 23 22 22 21 21 21 21 20 19 20 19 18 16 14 13 15 16 15 14 14 13 12 10 9 8 6 5 4 3 5 6 7 8 7 6 6 7 11 13 13 16 18 20 22 24 24 25 26 27 27 27 27 26
32 33 34 34 35 36 34 33 33 34 34 33 33 32 31 32 31 29 30 30 29 28 29 27 26 27 27 27 27 25 25 25 25 23 23 21 20 20 20 20 20 19 18 18 16 14 13 13 13 12 12 14 14 12 10 9 9 7 6 5 5 5 6 7 8 8 6 6 9 12 13 14 16 19 22 22 20 19 20 21 23 23 23 23 24
31 33 34 34 35 35 34 33 33 34 34 33 32 32 31 32 32 30 30 30 28 28 28 27 26 27 28 28 28 26 25 27 26 24 24 24 22 20 19 20 20 19 19 19 17 14 13 13 12 11 12 13 13 11 10 10 11 10 8 7 5 5 5 5 4 4 4 7 10 13 14 15 16 20 20 17 15 14 14 16 18 18 19 20 23
32 34 34 35 36 36 36 34 33 34 34 32 32 33 31 31 33 32 31 30 29 28 28 27 26 28 29 30 29 27 28 28 27 27 28 27 25 23 22 22 21 20 20 19 17 15 15 15 13 13 14 13 11 10 10 11 12 13 11 8 5 3 2 1 3 3 4 8 10 12 12 13 15 17 14 11 12 13 14 15 16 16 17 17 18
31 33 34 34 35 36 36 36 34 34 33 31 32 33 31 32 34 33 33 32 30 29 29 27 27 29 30 31 30 29 29 28 27 29 31 29 27 25 24 24 23 21 21 19 17 17 18 17 14 13 14 14 12 11 11 11 12 14 13 10 6 3 2 3 3 3 6 9 9 7 8 10 14 13 9 10 13 15 15 16 16 15 17 19 19
30 32 32 33 34 34 33 33 33 33 32 31 31 32 31 32 35 34 33 33 31 29 28 28 28 29 30 31 30 29 31 29 29 31 30 28 28 26 23 24 23 21 21 19 17 17 18 18 17 14 14 14 14 13 12 11 12 13 13 11 8 7 6 4 5 7 9 9 6 4 6 10 12 9 8 11 15 17 17 16 14 14 17 22 24
30 31 31 31 32 32 30 31 32 34 34 33 32 32 32 33 34 34 33 32 31 29 28 29 29 28 29 30 30 30 31 30 29 30 28 28 30 27 23 24 23 21 21 20 18 18 18 19 20 18 16 16 15 14 13 13 13 14 15 13 11 10 9 7 7 8 8 7 5 6 8 11 12 9 8 11 14 17 17 13 12 15 18 22 26
33 32 31 30 32 31 29 32 34 33 34 33 31 31 33 34 35 34 33 32 31 29 28 29 29 27 28 29 28 29 30 27 26 28 27 28 32 29 24 24 22 20 21 20 19 19 20 20 20 19 18 19 18 16 15 13 13 14 16 15 14 13 11 9 8 6 6 6 6 8 9 11 12 9 7 11 13 14 15 13 12 17 19 20 25
35 35 33 32 32 30 30 34 35 32 33 33 30 29 32 34 35 34 32 32 31 29 29 29 29 26 26 26 26 27 27 23 23 26 26 28 33 31 26 23 21 20 21 21 20 21 21 21 21 20 19 19 19 19 18 16 14 15 15 15 15 14 13 11 9 6 6 7 8 10 11 12 12 8 6 10 13 13 14 14 14 16 18 20 23
34 35 33 31 31 30 32 36 35 31 32 34 31 30 32 34 34 34 33 32 31 29 29 30 28 27 25 25 25 25 24 22 22 25 25 28 34 34 29 25 21 19 20 21 22 23 23 22 22 20 18 18 18 19 19 18 17 16 15 15 15 15 13 12 10 8 7 8 10 11 12 12 12 8 6 9 13 15 13 13 15 17 17 20 22
32 32 31 29 30 31 34 36 34 30 32 34 31 31 32 32 32 32 31 31 31 29 28 28 28 27 26 25 24 23 24 23 23 24 25 28 34 36 33 28 23 19 18 18 18 20 23 24 22 21 19 17 15 15 16 16 15 14 14 14 14 14 13 12 10 9 9 10 11 12 12 12 12 9 6 9 14 15 12 13 16 17 17 19 21
31 31 30 29 31 33 34 35 34 32 34 36 34 33 32 32 31 31 30 31 30 28 27 28 28 28 27 26 24 24 24 25 24 24 25 28 32 35 35 32 26 21 18 16 15 16 18 20 20 19 20 19 16 15 15 14 13 13 13 13 14 14 14 13 12 11 11 11 12 12 13 11 10 8 8 10 13 13 12 14 17 18 17 19 20
31 30 31 32 33 35 34 34 33 33 34 35 35 35 35 34 34 33 31 31 30 29 29 28 28 27 26 26 26 25 26 26 26 26 27 28 30 33 35 34 31 25 19 15 13 13 15 16 16 16 18 20 19 17 16 14 13 13 13 13 15 16 16 15 14 13 13 14 14 14 14 12 10 8 8 9 12 12 11 14 19 20 19 21 22
31 31 32 33 33 33 34 33 33 33 34 34 33 33 33 34 34 33 32 31 30 29 29 28 27 26 26 26 27 27 27 28 27 28 29 29 30 32 33 34 34 31 25 20 15 12 12 13 13 13 16 18 18 16 15 14 14 14 14 15 17 19 18 17 16 16 16 17 17 17 16 15 13 9 7 9 12 12 11 14 19 20 20 22 22
31 31 32 33 32 31 33 34 34 34 34 34 34 33 33 33 34 35 36 35 33 31 31 30 29 28 27 27 27 26 26 29 30 31 32 31 31 32 34 34 35 36 33 28 22 16 12 11 12 13 15 16 16 16 16 16 16 16 16 17 18 20 20 20 19 20 19 19 20 21 19 19 16 11 8 10 12 12 12 14 17 19 20 21 20
31 30 30 30 30 30 32 33 34 33 33 33 33 34 35 37 36 35 35 36 37 36 35 32 30 30 29 29 29 28 28 31 33 33 32 31 30 32 34 35 36 38 37 33 27 21 17 14 14 15 16 16 17 17 17 17 17 18 19 19 20 21 22 22 22 21 19 19 21 21 20 19 17 12 9 11 12 12 13 14 16 18 20 21 19
27 27 27 27 28 29 30 30 30 31 31 30 29 29 30 32 33 32 31 33 35 35 34 33 32 31 30 30 32 32 32 33 33 32 30 30 28 29 31 33 35 36 36 33 28 24 21 20 19 19 19 19 19 19 19 19 20 21 22 20 20 20 21 21 21 21 20 20 22 21 16 14 13 11 11 13 13 12 13 16 17 18 19 21 19
24 23 24 25 27 29 29 28 27 28 28 29 28 26 24 24 25 26 28 31 32 31 31 31 30 30 30 30 31 31 31 30 29 29 29 29 28 27 29 31 33 35 35 32 28 26 24 24 23 23 22 22 22 22 21 20 21 23 23 21 19 19 20 21 21 19 18 19 19 17 13 11 11 12 12 13 13 13 15 17 17 16 18 20 20
26 24 25 26 28 30 29 28 28 26 26 25 25 24 23 22 22 22 24 26 28 29 29 28 27 28 29 29 29 29 29 28 26 26 25 25 25 26 27 29 31 34 33 31 29 29 28 27 26 26 25 25 25 25 24 23 23 23 22 21 20 20 21 21 19 17 16 15 15 14 14 14 14 15 13 13 15 16 17 17 15 15 18 20 21
30 29 29 30 31 31 31 30 29 27 26 25 26 26 26 25 24 23 22 24 26 27 27 27 27 26 27 28 27 27 28 27 26 24 22 22 22 23 24 27 29 31 31 30 30 30 30 29 29 29 28 27 27 26 25 25 24 23 23 22 21 20 21 20 18 17 17 16 16 17 18 18 18 18 16 16 18 18 17 15 14 15 18 20 22
30 31 33 34 34 33 33 32 31 30 28 27 28 28 28 28 27 25 24 25 26 27 27 27 26 25 25 26 26 25 25 25 24 22 21 20 20 20 22 25 27 28 30 31 31 31 31 31 31 30 29 27 25 25 25 25 24 23 22 22 21 21 21 20 19 19 19 19 21 21 21 21 21 20 19 19 18 16 15 14 14 17 19 21 24
29 32 34 34 33 33 33 33 33 33 33 32 31 30 28 29 31 30 29 29 29 28 28 28 26 24 25 26 26 24 22 21 21 21 20 19 19 21 23 25 26 28 29 31 32 32 32 32 31 30 28 26 24 23 23 24 23 21 21 20 21 21 21 20 20 20 20 21 21 20 19 19 18 16 14 13 13 13 13 14 17 19 20 21 25
30 32 32 32 31 31 31 30 31 33 35 35 34 31 30 30 31 31 30 29 28 27 27 27 27 25 25 26 27 25 22 20 19 20 20 20 21 23 26 28 29 30 31 32 33 32 32 31 31 30 29 28 26 24 22 22 22 22 21 21 22 22 21 21 20 20 20 21 20 17 15 13 10 8 8 10 11 13 15 18 20 20 20 23 25
32 33 33 31 29 28 28 28 28 28 28 28 27 27 27 28 28 27 26 25 26 25 25 26 26 25 25 25 25 24 21 18 18 19 20 21 23 25 27 29 30 31 32 33 33 32 31 30 29 28 28 28 28 26 23 21 21 21 21 21 22 21 20 19 19 20 21 21 18 15 11 10 8 8 10 12 13 14 16 18 19 20 21 23 22
32 33 33 31 28 26 26 27 27 27 27 26 25 24 24 25 25 25 24 25 26 26 25 26 28 28 28 27 24 22 20 19 19 21 23 25 27 28 29 29 30 31 33 33 33 33 31 30 29 27 27 27 27 27 25 23 22 22 21 21 21 20 20 19 20 21 21 19 16 13 12 12 12 12 13 13 14 16 17 18 19 20 19 18 16
29 30 30 28 26 25 25 26 27 28 28 28 25 25 25 26 26 26 26 26 27 26 24 24 28 30 30 28 26 24 23 23 25 26 28 29 30 30 30 30 31 31 32 33 33 33 32 31 29 28 27 26 26 25 25 24 23 23 23 22 20 19 19 19 20 20 21 20 19 18 18 17 15 14 14 15 16 16 17 17 17 16 15 14 14
25 26 26 25 24 25 25 25 26 27 28 27 26 25 26 28 27 27 27 27 27 26 25 25 27 29 30 31 30 29 29 29 30 30 31 31 32 32 32 32 32 32 32 32 32 33 33 32 31 29 28 28 27 26 25 24 23 23 23 23 21 20 19 19 19 20 20 20 19 18 17 16 14 13 13 13 14 15 15 14 13 13 13 15 17
22 23 23 24 24 24 24 25 25 26 27 27 26 25 26 29 29 28 27 27 28 28 28 27 28 30 32 33 34 33 33 33 33 33 32 33 33 33 34 33 33 32 32 32 32 32 32 32 31 30 29 29 28 28 27 26 26 25 25 24 22 21 21 20 20 21 20 19 17 16 16 14 13 13 14 15 16 17 17 16 15 15 16 17 19
21 22 23 24 25 25 24 24 25 25 26 26 26 25 26 27 27 26 26 27 28 29 29 27 27 29 31 33 33 34 34 34 34 34 34 34 34 35 35 34 34 34 33 33 33 33 32 32 30 29 29 28 28 27 27 28 28 28 27 25 23 22 21 20 19 19 19 17 17 16 15 14 14 14 15 16 17 18 18 18 17 18 19 20 22
19 22 24 25 25 24 23 23 23 23 24 25 25 25 26 26 24 24 25 26 28 29 30 28 27 28 31 33 32 33 34 34 33 34 35 35 35 35 35 35 35 35 34 34 33 33 32 32 30 28 27 26 26 26 26 26 27 29 29 27 23 21 20 19 17 16 14 14 14 15 15 15 16 17 17 16 17 17 17 17 18 19 21 22 22
17 20 22 24 24 23 22 22 23 23 24 25 24 24 25 25 24 24 25 26 27 29 30 30 28 28 30 32 33 34 35 35 33 33 34 34 34 35 36 36 36 36 35 35 34 32 32 32 31 30 29 28 27 26 24 23 24 27 29 28 23 19 18 18 16 15 14 13 14 16 17 18 19 20 20 19 18 17 17 18 18 19 20 20 19
15 18 20 22 23 22 22 22 23 24 25 24 23 22 23 24 24 25 25 26 26 27 28 28 27 27 28 31 34 36 36 35 34 33 33 33 34 34 34 34 34 35 35 35 35 34 34 33 33 32 31 31 29 27 25 21 19 20 23 24 20 18 18 18 18 18 17 17 18 20 22 23 23 24 23 22 21 21 20 19 19 19 19 19 20
14 17 19 21 22 22 21 21 23 24 24 24 24 23 22 22 23 24 26 26 25 23 23 23 25 26 28 30 33 36 36 36 34 33 33 33 33 32 32 31 32 32 32 33 34 35 36 36 36 34 33 32 30 28 25 21 17 17 19 19 18 18 19 19 19 18 16 15 16 18 21 23 25 26 25 24 23 23 22 21 20 20 21 21 20
12 14 17 19 20 19 17 17 19 22 23 24 23 20 18 17 18 19 21 24 23 20 20 21 22 24 24 26 29 33 35 35 34 33 33 33 32 31 30 30 30 30 30 29 30 32 34 36 37 37 36 34 32 29 27 25 22 20 19 18 18 19 20 19 18 16 14 14 16 18 21 24 26 27 27 26 25 25 24 24 23 22 22 22 21
13 14 16 18 17 16 15 16 18 20 21 21 21 19 18 20 20 18 19 20 21 20 20 20 19 19 19 21 25 29 32 33 33 32 31 31 30 29 28 28 29 30 30 28 28 29 30 32 34 35 36 36 35 33 31 30 28 26 24 23 22 22 22 22 20 18 17 17 19 21 23 24 24 24 24 24 24 24 23 22 22 22 23 23 22
13 15 18 20 19 18 18 18 19 18 17 17 19 19 18 19 20 19 18 19 21 22 22 23 22 21 22 22 23 25 28 31 32 31 30 29 28 28 27 27 28 29 30 29 29 28 28 29 30 31 33 35 35 34 33 32 31 30 28 26 25 24 23 22 22 20 18 18 20 22 23 22 21 19 19 19 19 20 20 19 20 22 23 23 23
12 16 18 20 20 19 18 17 17 16 15 16 18 19 18 18 19 19 18 18 20 22 23 24 24 24 23 23 23 23 25 28 30 30 31 30 29 28 27 27 28 29 30 30 30 30 29 28 28 28 30 32 33 33 33 33 31 29 27 25 24 23 22 21 21 20 19 19 21 23 25 25 23 19 17 16 16 16 18 19 20 22 23 23 23
10 13 14 15 16 16 16 15 15 16 15 14 16 18 19 19 19 19 18 18 20 20 21 22 22 23 23 24 24 25 25 26 27 28 30 30 30 29 28 28 28 29 30 30 30 30 30 29 28 27 27 28 30 30 31 30 29 28 26 24 23 23 22 21 21 20 20 20 20 21 23 25 23 20 17 16 16 18 19 21 22 22 22 23 23
Wind_Direction
185 184 184 183 182 181 181 181 181 180 180 180 181 179 176 174 173 172 170 171 173 173 170 167 166 164 162 160 159 158 157 157 159 158 153 148 145 144 143 140 134 130 129 127 127 128 125 121 118 116 115 112 107 106 106 102 97 86 73 65 61 53 47 45 31 357 0 8 2 360 360 359 4 8 3 356 351 348 349 352 354 356 359 0 0
184 183 183 182 181 180 180 181 180 178 177 178 181 178 175 175 174 172 171 173 175 174 171 169 168 166 164 163 161 160 159 159 159 159 154 149 145 144 145 143 136 133 132 132 134 139 139 134 129 128 129 127 123 117 114 113 109 91 74 68 67 61 52 40 24 354 345 352 355 356 0 7 13 11 3 358 354 349 348 353 357 358 0 1 360
184 183 181 181 179 178 179 179 178 176 174 174 175 175 174 174 175 175 173 174 177 177 174 171 171 169 167 166 164 162 161 160 160 161 157 151 146 146 148 145 140 139 138 138 140 145 146 141 135 137 140 140 136 128 122 122 117 101 87 83 80 72 67 51 25 355 335 340 348 353 3 16 19 8 359 357 354 350 351 356 359 360 1 1 360
183 182 180 178 178 177 178 178 175 174 173 171 169 171 173 173 174 175 174 174 175 176 175 174 172 171 170 168 166 164 162 161 162 163 159 153 151 151 152 148 145 146 146 145 148 151 149 144 139 141 147 151 150 140 126 126 132 120 103 93 81 74 81 68 33 6 346 343 350 359 11 19 14 3 358 355 352 354 357 358 360 1 0 359 359
181 181 178 175 175 175 177 177 174 173 173 172 171 173 175 175 176 177 175 174 173 172 174 175 174 173 172 170 169 167 165 165 166 163 158 155 157 156 152 150 150 152 151 151 152 152 148 145 143 146 152 153 152 146 128 121 135 140 130 114 90 89 88 64 40 26 13 5 4 8 15 15 5 358 359 355 351 357 1 360 360 0 357 356 357
179 179 177 174 173 174 176 175 173 172 172 173 174 174 175 176 178 179 177 174 174 175 176 176 176 176 174 172 171 170 169 170 168 163 160 159 160 156 152 152 153 153 153 154 154 150 147 147 149 155 160 157 156 154 143 130 131 144 149 139 109 104 90 59 44 32 22 19 17 14 15 14 5 358 358 354 351 356 357 356 357 358 355 353 354
177 176 175 173 173 174 175 174 173 172 171 172 173 173 174 176 178 180 179 176 177 179 178 178 179 179 176 175 175 173 172 172 169 164 163 164 161 156 155 157 156 154 154 154 154 154 155 157 162 167 170 168 165 161 155 148 143 144 150 147 127 108 82 61 44 29 24 25 23 17 13 10 3 357 354 351 354 358 355 349 348 351 352 351 350
174 174 173 172 172 174 174 173 173 172 170 170 172 173 175 177 179 179 177 175 179 180 178 179 180 179 177 178 177 176 173 171 169 167 166 166 163 160 161 163 160 157 157 157 160 164 166 167 170 175 177 178 175 168 162 161 156 143 136 139 123 93 74 60 41 31 26 23 21 16 9 4 358 352 347 345 348 354 354 345 339 342 346 349 350
171 171 172 171 172 173 172 172 172 171 170 169 170 172 175 177 180 179 177 177 180 181 180 181 181 179 179 180 179 177 175 173 171 170 168 167 165 165 167 166 164 161 159 162 168 173 175 175 175 178 185 188 186 179 173 173 171 138 118 116 102 84 74 60 46 37 30 23 16 9 3 358 351 343 339 339 339 342 346 344 339 340 343 345 351
169 170 171 171 172 171 170 170 170 170 171 170 170 172 175 178 180 178 177 179 181 182 182 182 182 182 182 181 178 177 176 176 175 174 172 170 170 170 169 168 167 166 164 166 173 177 178 179 183 188 194 190 182 178 176 172 156 128 115 109 100 88 74 59 49 39 31 26 17 6 355 344 339 333 328 331 336 336 338 337 335 337 340 341 348
169 171 172 171 171 171 169 170 170 170 171 172 172 174 177 180 179 176 176 180 182 183 183 184 184 185 183 180 178 178 178 177 176 176 176 175 174 173 170 170 170 170 170 173 176 175 176 181 187 187 184 174 163 160 160 152 138 128 118 106 94 78 57 48 43 33 28 24 14 4 348 329 326 326 322 325 331 332 332 331 330 332 335 333 332
170 171 172 171 171 170 170 171 171 171 172 174 175 176 179 180 178 176 178 181 183 185 185 185 186 186 183 179 177 177 177 177 177 179 180 179 177 175 173 173 174 174 176 180 178 177 179 180 177 172 167 163 157 152 150 145 136 130 119 104 82 46 16 8 11 8 10 11 2 352 338 323 320 321 321 322 325 328 330 329 330 329 328 325 316
170 170 171 170 170 170 171 172 172 173 174 175 177 178 179 179 177 177 181 183 184 186 186 187 187 185 182 178 177 176 174 177 180 182 181 179 178 178 177 177 179 178 180 184 183 181 181 174 169 168 166 165 159 154 153 153 153 156 149 147 258 302 301 312 323 321 334 351 346 339 335 322 315 318 323 323 322 325 327 326 327 325 322 321 317
170 169 170 170 170 171 172 173 174 176 176 177 179 177 177 177 176 178 181 182 185 187 186 187 186 184 180 177 176 175 175 178 181 180 178 178 180 181 181 181 182 182 185 190 190 187 182 175 174 176 177 178 175 172 174 178 187 201 206 209 249 274 272 282 285 281 305 334 329 331 335 325 315 317 324 326 323 323 323 320 320 321 320 319 321
170 169 169 171 172 172 173 174 175 177 178 180 180 178 177 177 176 179 181 183 187 188 186 186 185 181 180 179 175 175 176 178 178 176 175 177 181 184 185 185 185 186 190 195 196 193 188 183 182 183 183 186 189 192 196 202 207 212 215 223 255 276 273 283 283 273 294 327 321 321 329 326 319 317 322 326 326 325 321 316 318 323 323 324 331
170 171 171 172 172 172 174 175 176 178 179 180 180 178 178 178 177 179 182 184 188 187 185 186 184 180 180 180 177 175 175 178 180 179 178 178 180 185 190 191 191 191 193 197 198 196 195 194 195 194 189 188 192 198 207 218 223 225 227 229 249 286 296 298 285 257 280 313 317 318 321 321 318 319 322 327 330 330 320 316 326 335 331 329 335
171 173 174 174 174 174 176 177 178 180 181 179 179 179 178 177 177 179 181 183 186 186 186 186 184 182 182 181 180 176 176 183 189 188 186 184 181 185 191 194 195 195 194 195 196 193 193 197 202 206 201 197 200 209 218 226 228 228 229 225 236 287 299 215 169 187 274 307 315 315 314 316 320 322 328 338 339 329 315 319 334 339 334 332 332
172 174 176 177 177 178 179 180 181 181 181 180 178 179 179 177 178 181 182 183 184 185 186 185 185 188 186 183 183 181 181 188 193 194 195 192 186 186 190 192 194 193 189 189 190 191 193 196 202 207 204 202 209 219 227 231 226 223 221 217 227 248 208 174 185 237 292 305 307 303 305 320 328 330 340 349 342 329 320 327 335 332 333 335 328
175 174 176 178 180 181 181 180 179 179 182 181 179 180 181 179 179 180 181 182 183 184 187 186 185 189 188 186 187 188 187 190 193 196 200 198 191 190 190 190 192 192 191 193 195 198 203 205 208 212 206 206 217 225 229 230 223 220 219 217 227 236 228 237 263 282 300 306 304 304 319 331 333 338 352 347 338 335 335 338 337 332 334 335 330
176 175 176 178 181 183 182 178 178 181 183 182 180 181 181 177 176 177 178 180 181 183 186 186 185 187 187 187 190 191 191 192 193 197 203 201 196 194 190 189 191 193 196 200 201 204 208 209 212 217 216 216 223 227 229 230 227 226 224 224 233 240 243 263 282 293 306 313 310 309 316 325 327 334 351 344 335 340 348 349 346 345 341 334 333
176 176 177 178 180 183 181 178 180 185 185 182 180 181 178 173 173 176 177 177 179 181 184 186 187 186 186 188 189 190 193 197 197 198 203 203 201 199 192 190 194 197 198 199 201 206 209 208 211 218 222 226 230 229 231 235 235 233 231 232 241 248 254 271 286 293 301 302 302 305 310 320 324 327 344 342 335 342 352 355 351 350 345 336 335
176 177 177 178 179 180 177 178 183 186 184 182 180 176 173 172 174 176 176 176 178 180 183 185 184 182 183 186 188 189 195 203 205 202 202 203 205 204 196 191 193 198 201 202 206 210 211 212 216 221 226 232 235 235 236 240 242 242 239 239 245 251 257 269 280 283 286 287 294 303 309 318 324 324 334 339 335 338 347 351 348 345 344 344 342
175 176 176 177 179 176 173 177 184 183 180 181 179 172 171 173 175 175 175 176 177 180 183 184 180 177 179 184 190 195 197 201 207 208 205 203 206 207 202 195 193 195 200 207 213 216 216 216 219 223 227 232 235 237 238 242 246 247 245 244 248 251 255 263 269 272 277 283 290 298 305 315 321 319 328 338 333 332 338 341 338 338 342 348 349
176 178 177 174 174 173 171 177 183 181 179 179 176 172 172 173 173 174 175 176 177 179 181 181 179 179 181 186 193 199 199 198 205 211 210 207 208 209 207 202 197 196 202 209 213 214 215 218 221 224 229 230 229 231 234 238 243 246 246 247 249 250 251 256 262 269 272 274 280 288 297 310 317 315 327 337 330 329 336 334 331 336 343 345 347
178 179 176 170 167 169 171 175 179 180 179 179 176 173 172 170 171 174 176 177 179 180 179 180 182 185 188 190 194 198 201 203 207 211 213 212 210 210 211 208 203 201 204 205 205 207 211 216 220 223 227 227 222 220 224 230 237 242 246 249 249 248 249 253 258 264 264 262 269 281 290 303 313 314 322 329 325 326 333 330 328 336 343 342 344
174 171 169 167 166 168 169 171 175 177 178 179 179 177 175 173 174 176 179 181 182 181 180 183 187 190 193 196 198 201 204 206 207 208 211 213 212 212 213 212 209 208 208 207 207 208 211 215 216 215 217 219 217 216 221 229 239 244 248 250 249 248 249 252 256 260 258 258 264 274 283 293 303 306 310 318 321 324 327 327 328 334 339 340 340
165 161 162 165 168 169 167 167 170 173 175 177 178 178 178 177 177 178 181 182 182 182 183 186 190 192 195 197 199 202 203 204 205 207 209 210 211 212 213 213 212 213 215 217 218 215 211 211 210 206 206 210 213 217 224 232 240 245 250 253 253 253 254 255 258 261 262 265 271 275 277 284 290 295 302 311 318 321 322 326 327 329 335 336 336
161 160 162 165 166 167 168 169 170 172 174 177 177 178 179 180 181 184 186 185 184 183 185 189 191 193 194 193 194 197 200 203 206 209 210 210 210 210 212 213 213 215 217 220 222 223 218 207 198 195 198 205 212 219 227 234 241 249 257 262 262 260 260 261 263 263 263 266 273 275 275 277 278 278 291 307 312 314 317 323 325 326 331 333 331
161 161 163 164 165 168 170 172 173 173 175 178 180 182 184 185 187 190 191 192 193 191 190 191 193 194 194 194 194 195 201 207 211 214 215 215 214 212 213 213 214 215 217 219 221 223 223 219 211 207 208 213 221 227 234 241 248 256 262 266 265 263 263 264 264 264 264 268 274 276 277 276 271 266 280 300 305 305 307 312 316 319 325 328 327
158 160 161 162 164 167 170 173 175 175 175 177 180 184 187 190 192 193 194 196 198 198 196 195 196 197 198 200 203 205 209 213 216 218 219 220 221 220 218 217 217 217 217 218 220 222 222 223 224 223 223 226 230 235 242 249 256 261 264 264 262 260 262 265 266 268 272 273 272 270 268 264 259 262 282 294 294 293 297 301 305 311 318 323 324
153 155 157 160 163 167 171 174 176 177 178 179 180 181 185 190 195 198 200 200 200 201 202 202 203 204 205 207 210 212 216 218 219 219 220 221 222 224 224 222 221 220 219 218 217 218 220 222 225 227 229 233 236 240 246 254 260 263 263 261 258 258 262 268 271 273 273 270 264 259 256 255 260 270 281 284 283 288 294 297 300 308 315 318 318
155 156 159 163 168 173 176 178 179 179 179 179 180 180 181 184 190 198 203 206 206 206 206 207 209 211 212 212 212 213 215 219 220 220 220 220 222 225 226 226 224 223 221 219 217 218 220 223 226 230 232 235 240 243 246 252 257 260 258 257 256 258 263 269 272 270 266 265 263 261 260 264 267 267 269 273 279 288 292 293 299 308 311 312 313
160 161 164 168 174 179 181 181 181 181 180 180 181 183 185 185 187 189 194 202 209 211 210 211 213 213 213 214 215 215 216 217 219 221 223 224 225 225 225 227 227 224 219 217 217 221 223 225 229 233 234 238 241 243 243 247 252 255 255 255 256 260 266 271 272 270 268 269 270 268 264 262 259 257 261 271 279 283 286 289 299 306 305 308 313
163 165 169 173 178 183 183 181 181 181 182 184 186 188 190 189 186 184 183 188 197 204 206 208 210 211 210 212 215 216 215 214 217 221 224 225 225 222 222 223 224 221 218 217 219 222 224 226 229 232 234 236 239 241 242 244 248 251 252 253 256 261 266 268 268 267 269 271 271 269 264 260 258 259 266 274 276 278 281 288 299 304 303 305 310
166 171 177 181 184 186 185 183 182 181 183 187 190 191 191 189 187 187 185 184 187 193 196 197 200 203 205 208 211 212 211 213 218 221 220 218 216 215 213 212 210 211 214 217 220 222 224 226 228 229 229 230 232 236 240 242 244 248 249 250 254 259 263 265 264 266 270 273 272 269 264 261 259 261 266 270 270 270 278 290 299 300 299 302 305
171 177 184 188 191 190 186 184 184 184 186 189 189 188 189 188 188 189 189 188 188 189 191 192 195 198 203 207 210 211 210 212 217 218 217 214 211 208 206 205 205 207 210 214 218 222 224 227 229 229 228 227 227 230 236 240 244 247 248 250 255 258 260 262 262 265 271 274 273 270 263 254 246 250 269 282 282 280 284 289 291 290 293 299 302
177 181 185 188 190 188 184 183 185 187 189 189 187 185 186 188 190 191 190 189 188 187 189 192 193 195 200 203 205 207 208 210 213 215 215 214 211 210 211 210 209 210 211 213 216 219 222 226 229 230 231 230 229 230 236 243 248 249 249 253 258 260 259 260 262 266 272 273 268 262 253 240 242 270 292 296 293 290 288 286 287 290 295 299 299
182 184 185 187 188 186 183 183 185 186 188 188 187 186 186 187 191 193 192 190 189 187 189 192 193 195 198 199 198 201 203 202 203 207 209 209 209 211 213 214 213 212 213 214 215 218 222 226 229 230 231 232 231 232 236 241 244 244 246 252 258 258 258 261 265 267 269 266 258 255 259 263 270 284 291 288 286 289 291 294 296 296 295 295 297
183 185 186 188 190 188 185 185 184 185 187 188 188 188 187 186 189 193 193 192 192 191 191 194 195 198 199 197 195 196 198 199 201 203 204 206 208 210 212 214 214 214 216 217 218 220 224 227 228 229 230 230 231 233 237 240 243 244 245 249 254 256 257 261 265 266 264 261 259 262 268 272 274 276 276 277 281 286 289 294 296 290 287 296 306
179 182 185 188 191 191 189 188 185 185 188 190 191 191 189 189 191 192 192 192 193 194 195 197 200 202 203 202 199 199 200 203 205 206 205 206 208 210 212 214 215 217 219 221 222 224 227 228 228 229 230 231 232 234 237 240 243 244 246 249 252 256 257 260 265 269 267 262 260 262 263 263 265 268 270 275 281 285 287 288 288 286 291 301 304
184 185 187 190 192 190 189 188 188 188 190 191 193 195 195 194 194 193 192 192 194 196 198 202 205 207 208 208 208 208 209 209 209 209 210 210 211 212 213 215 217 219 221 223 225 227 228 230 231 232 234 235 236 236 236 238 240 243 245 247 248 251 253 255 261 268 268 262 258 259 258 257 261 269 275 280 283 284 284 284 284 286 291 294 294
185 183 185 189 189 188 187 188 191 192 192 192 194 198 200 198 195 194 193 194 195 196 198 202 208 211 213 213 212 213 214 215 213 213 214 215 216 217 217 218 219 221 224 226 228 228 228 230 232 234 236 237 238 238 239 240 242 244 245 245 245 247 250 255 261 264 262 259 258 259 258 258 265 272 277 282 284 282 279 279 280 282 285 288 291
183 181 184 187 187 186 189 191 190 191 193 195 197 201 202 201 198 196 196 196 197 198 200 202 205 211 215 215 213 212 213 215 215 216 217 218 219 220 222 224 225 225 227 230 231 230 230 231 231 233 235 238 241 242 243 245 249 249 246 244 243 245 250 257 261 259 256 257 259 259 259 262 269 273 276 279 282 282 281 282 282 283 286 289 292
186 184 187 188 186 186 191 194 194 196 199 201 202 205 205 204 202 200 199 199 199 201 203 204 205 209 212 212 209 208 210 213 215 217 218 220 222 224 226 228 229 229 230 231 231 230 230 230 230 230 233 238 242 245 248 254 260 256 246 238 236 242 252 259 259 256 257 261 262 264 267 270 272 274 275 276 276 277 280 283 284 285 288 290 291
195 193 195 194 191 191 194 197 199 202 204 204 205 208 209 207 206 206 207 206 206 207 210 209 207 208 209 208 206 207 210 213 216 218 219 221 224 227 229 231 232 233 234 234 233 229 228 229 229 229 231 234 239 245 251 256 259 249 236 230 233 241 249 254 256 256 258 262 266 269 271 272 272 272 271 272 272 272 273 276 280 284 287 289 290
203 199 198 196 193 192 194 197 200 203 205 206 207 209 210 210 211 213 213 212 212 214 215 212 210 212 212 209 207 208 211 213 216 218 220 222 226 230 233 234 234 236 238 240 238 235 233 232 231 231 232 234 237 242 247 250 249 242 236 236 241 247 250 252 255 257 258 262 268 272 273 272 271 270 268 267 269 270 269 270 275 280 283 286 288
192 193 194 194 191 190 191 195 201 205 207 207 207 208 210 214 220 225 223 219 217 218 218 214 212 212 211 209 209 211 211 212 214 218 222 225 228 231 235 238 238 238 241 244 244 243 241 239 237 236 236 235 235 237 242 246 249 248 245 243 246 250 253 253 255 260 265 268 272 278 281 280 277 273 269 266 266 267 269 269 270 274 278 280 282
178 184 189 189 186 186 191 196 198 201 202 201 198 198 203 211 220 227 227 221 217 217 217 215 211 209 210 216 221 220 216 214 215 218 221 226 230 233 236 239 241 241 242 244 246 247 246 245 243 241 238 237 236 236 239 244 248 251 251 251 252 254 255 256 259 266 271 272 273 279 284 285 282 277 272 267 264 264 266 266 267 271 275 277 281
176 180 182 180 181 189 199 202 199 199 198 195 192 191 196 206 214 220 221 215 211 211 211 209 208 209 212 217 222 224 220 217 216 217 218 222 226 229 233 238 243 244 243 244 246 247 248 247 245 243 241 239 238 238 240 243 248 251 253 255 254 253 253 256 261 265 267 270 275 278 280 280 279 273 265 259 256 256 257 260 266 272 275 277 282
173 175 176 176 181 192 201 204 203 202 199 195 193 194 198 204 210 214 215 211 208 209 210 211 212 215 217 217 219 222 221 218 216 217 219 221 224 227 230 236 242 244 244 245 246 247 247 246 246 245 244 242 241 241 242 245 248 251 252 252 251 252 254 257 260 263 266 270 274 277 278 279 278 270 259 252 252 256 261 267 271 273 274 276 282
178 179 182 185 190 196 200 202 200 198 197 198 201 204 208 212 215 218 220 220 217 214 213 214 215 216 217 219 220 220 220 220 221 222 223 225 227 229 232 235 238 240 241 244 245 244 243 242 242 242 243 243 243 243 244 245 247 249 250 250 250 252 256 259 262 266 270 272 275 277 279 279 275 267 261 263 267 270 272 274 273 272 274 278 283
Height
773 776 778 781 784 786 789 792 795 798 800 802 804 806 808 809 811 812 814 815 816 818 819 821 823 824 826 827 828 828 830 831 832 833 834 835 836 837 838 840 840 842 843 845 846 847 848 849 850 851 852 853 854 855 855 856 856 856 856 856 857 857 858 859 860 860 860 860 860 859 858 857 856 855 854 852 850 849 847 845 843 841 839 837 835
771 774 776 779 782 784 788 791 793 796 798 801 803 805 807 808 810 811 812 814 815 816 818 820 822 823 824 826 827 828 829 830 832 833 834 835 836 837 838 839 841 842 843 845 846 847 848 849 850 851 852 853 854 855 855 856 856 856 856 856 857 857 858 859 860 860 860 860 860 859 858 857 856 855 853 852 851 849 846 844 842 840 838 837 835
769 772 775 778 780 783 786 789 792 794 796 799 801 803 805 806 808 809 811 812 813 815 816 818 820 822 823 825 826 827 829 830 831 832 833 834 836 837 838 839 841 842 843 844 846 847 848 849 850 851 852 853 854 855 855 856 856 856 857 857 857 857 858 858 859 860 860 859 859 858 857 857 856 855 853 852 851 849 845 843 841 839 838 837 835
768 771 773 776 779 782 785 788 790 792 795 797 799 801 803 805 807 809 810 811 812 814 816 817 819 821 822 824 825 827 828 829 831 832 833 835 835 837 838 840 841 842 843 844 845 847 848 849 850 851 852 853 854 855 855 856 856 857 857 857 857 857 858 858 858 859 859 859 859 858 858 857 856 855 854 852 851 849 845 843 842 839 837 836 835
766 769 771 774 777 780 783 786 788 790 793 796 797 799 801 804 806 808 809 810 811 813 815 817 818 820 821 823 824 826 827 829 830 832 833 835 835 836 838 839 841 842 843 844 845 847 848 848 850 851 852 852 854 855 856 856 856 857 857 857 857 858 858 858 858 858 858 858 858 858 858 856 855 855 854 853 851 849 845 842 841 840 837 835 833
764 767 769 772 775 779 782 784 786 789 791 794 796 798 800 803 805 807 808 809 810 812 814 816 817 819 821 822 824 825 827 828 830 831 833 834 835 836 838 839 841 842 843 844 846 847 847 848 849 851 852 852 854 855 855 856 856 856 857 857 858 858 858 858 857 857 857 858 858 858 857 856 855 855 854 853 851 849 845 842 840 840 837 834 831
761 765 767 770 773 777 780 782 785 787 790 792 794 796 799 802 803 805 807 808 810 812 813 815 817 818 820 822 823 825 826 828 829 831 832 833 835 836 837 839 841 842 843 844 846 847 847 848 849 850 851 852 853 854 855 855 856 856 857 857 858 858 858 858 857 857 857 857 858 858 857 857 856 855 855 853 851 849 847 844 840 838 837 835 831
759 763 766 768 772 775 778 781 783 786 788 790 793 795 798 800 802 804 805 806 809 811 813 815 816 818 820 821 822 824 826 827 829 830 831 833 834 835 837 839 840 842 843 845 845 846 847 848 849 850 851 853 853 854 855 855 855 856 856 857 857 858 858 858 857 857 857 857 858 858 857 857 856 856 854 852 850 848 846 845 843 839 837 835 833
757 761 764 767 770 773 776 780 782 785 787 789 791 794 797 799 801 803 804 805 808 811 812 814 816 817 819 820 822 823 825 826 828 829 831 832 834 835 836 838 840 841 843 844 845 846 847 848 849 850 852 853 854 854 855 855 855 856 856 857 857 857 858 858 857 857 857 857 857 857 857 856 856 855 853 851 849 848 846 845 844 841 838 835 832
755 759 762 765 769 772 775 778 781 782 785 787 790 792 796 798 800 801 803 805 807 810 812 814 815 817 818 819 821 823 825 826 828 829 830 832 833 834 836 837 839 840 842 843 844 845 846 848 849 850 851 852 853 854 854 855 855 856 856 857 857 857 857 858 857 857 857 857 857 857 856 856 855 854 853 851 849 848 846 845 843 840 838 835 831
753 757 760 763 767 770 773 776 778 780 783 786 789 791 795 797 798 800 802 804 807 809 811 813 814 816 817 819 821 823 824 826 828 830 831 832 833 834 836 837 838 840 841 841 843 844 846 847 848 849 850 851 852 853 854 854 855 855 856 856 857 857 857 857 857 856 857 857 857 856 856 855 854 853 851 850 849 847 845 843 842 839 837 835 832
751 755 758 762 765 767 771 774 776 779 781 784 787 790 793 795 797 798 800 803 806 808 810 812 813 815 817 819 821 823 825 827 829 831 832 833 834 835 836 838 839 840 841 841 842 843 845 846 847 849 850 850 851 852 853 854 854 855 855 856 856 857 857 857 856 856 856 856 856 856 855 855 853 851 850 849 848 846 844 842 841 839 837 835 833
749 752 756 759 762 765 769 772 775 777 779 783 786 789 792 794 795 796 799 803 805 807 809 811 812 814 816 818 820 823 825 828 829 831 833 834 835 836 837 839 839 840 841 841 842 843 844 845 846 848 849 850 850 851 852 853 853 854 855 855 855 855 855 855 855 855 855 855 855 855 854 853 852 850 849 848 847 845 843 841 840 839 837 835 832
747 750 754 757 760 763 767 769 772 775 778 782 785 787 790 792 793 795 798 802 804 806 808 810 812 814 815 817 819 821 823 825 827 830 832 834 836 837 837 838 839 840 841 841 842 843 843 844 845 846 848 849 849 850 851 852 853 853 854 854 854 854 854 854 854 854 854 854 854 853 853 852 851 849 847 847 846 844 842 840 839 838 836 833 831
745 749 752 755 758 761 764 768 771 774 777 780 783 786 788 790 791 794 797 800 803 804 807 809 811 813 814 816 818 820 822 824 826 828 831 834 836 837 837 838 839 840 840 841 842 843 843 844 845 846 847 847 848 849 850 851 852 852 853 853 853 853 853 852 852 853 853 853 853 852 851 850 849 848 847 846 845 843 842 840 838 837 835 832 830
743 747 750 753 756 758 762 766 769 772 775 779 781 784 786 787 789 792 796 799 802 804 806 808 810 811 812 814 816 819 821 824 826 827 829 831 834 837 838 838 838 839 839 840 841 842 843 843 844 845 846 846 847 848 849 850 851 851 852 852 852 852 851 850 851 851 852 852 851 850 849 848 848 847 846 845 844 842 841 839 838 836 834 831 828
741 744 747 750 753 756 759 763 766 770 773 776 779 782 784 785 787 790 794 797 800 802 805 807 808 809 810 812 814 817 820 822 824 825 826 827 830 833 835 836 837 837 838 839 840 841 842 843 843 844 845 845 846 847 848 849 849 850 850 851 851 851 850 849 849 850 851 850 849 849 848 847 847 846 845 844 842 841 839 838 837 835 833 831 827
739 742 745 748 751 753 756 760 763 768 772 775 778 780 782 784 786 788 791 794 798 801 803 805 807 807 808 810 813 815 818 820 822 823 824 825 828 830 832 834 835 836 836 837 838 840 841 842 842 842 843 844 845 846 847 847 848 848 849 850 850 850 849 848 848 849 849 849 848 848 847 846 845 844 843 842 841 840 838 837 836 834 833 830 827
738 740 744 747 749 752 755 759 763 768 772 775 777 778 779 781 784 786 789 792 796 799 801 804 805 806 807 809 811 813 815 817 820 822 823 825 827 829 830 831 833 834 835 836 837 838 840 841 841 841 842 843 844 845 845 846 846 847 848 848 849 848 848 848 847 847 847 847 846 846 845 845 844 843 842 841 840 839 838 837 836 834 832 830 826
737 740 743 745 749 752 755 759 763 767 770 772 774 776 778 780 783 786 788 791 794 797 800 802 804 805 806 807 809 811 813 815 818 820 822 824 826 827 828 829 830 832 833 834 835 837 838 839 839 840 841 842 842 843 844 845 845 846 846 847 847 847 847 847 847 846 846 846 845 845 844 843 842 841 841 840 839 839 837 836 835 834 832 829 826
734 739 742 744 748 752 754 758 762 765 768 771 773 775 777 779 782 785 787 789 792 795 798 800 802 803 805 806 808 811 813 814 816 819 821 823 825 826 827 828 829 830 832 833 834 835 836 837 838 839 840 840 841 842 843 843 844 845 845 845 846 846 846 846 846 845 845 845 844 843 843 842 841 840 840 840 839 838 837 836 834 833 831 829 826
731 736 739 743 747 750 753 757 761 764 767 769 772 775 777 778 781 784 786 788 791 794 797 799 800 802 804 806 808 811 813 815 816 817 819 821 823 825 826 826 828 829 830 831 832 833 834 835 836 837 838 839 840 840 841 842 843 843 843 844 844 845 845 845 845 844 844 844 843 842 841 841 840 839 839 839 838 837 836 835 833 832 831 829 827
729 733 737 740 744 747 750 755 758 761 764 768 771 773 776 778 780 782 784 787 790 793 795 797 799 801 803 805 807 809 811 813 815 816 817 819 821 823 824 825 826 827 828 829 830 831 832 833 834 835 836 837 838 839 839 840 841 842 842 843 843 844 844 843 843 843 842 842 842 841 840 839 839 838 838 838 837 836 835 833 832 831 830 828 826
728 732 735 738 741 745 748 753 757 760 763 766 769 771 774 777 779 781 783 785 788 791 793 795 797 799 801 803 804 806 808 810 812 814 815 817 818 820 822 824 825 826 827 828 829 829 830 831 832 834 835 835 837 837 838 839 840 840 841 841 842 842 842 842 842 841 841 841 840 840 839 838 838 837 837 837 836 835 834 832 831 830 829 827 825
727 730 734 737 740 744 748 751 755 758 761 763 766 769 772 775 777 780 782 785 787 789 791 793 796 798 799 800 802 804 806 808 810 811 813 814 816 818 820 822 823 825 826 826 827 828 829 830 831 832 833 834 835 836 836 837 838 839 839 840 840 840 840 840 840 840 839 839 839 839 838 837 837 837 836 836 835 834 833 831 830 829 828 826 824
725 729 732 736 739 743 746 750 753 756 759 762 764 766 769 771 774 777 780 782 784 786 788 791 793 795 796 797 799 801 803 805 807 808 810 812 813 815 818 820 822 823 824 825 826 827 827 828 829 830 831 832 833 834 835 836 837 837 837 838 838 838 838 838 838 838 838 837 837 837 836 836 836 836 835 835 834 833 832 831 829 828 826 824 823
724 727 731 734 738 741 744 747 751 754 757 760 763 765 768 770 772 774 776 778 781 783 786 788 790 792 793 795 797 798 800 802 804 805 807 808 810 812 815 817 820 821 822 823 824 826 826 827 828 829 830 831 832 833 834 835 835 835 836 836 836 836 836 837 837 836 836 835 835 835 835 835 835 835 834 833 833 832 831 830 829 828 826 824 823
723 727 730 733 736 740 742 745 748 751 754 757 760 763 765 768 769 770 771 773 776 779 782 784 786 788 789 792 794 796 797 798 799 800 802 804 806 809 811 814 816 818 819 821 823 825 826 826 827 828 829 830 831 831 832 833 833 834 834 834 834 834 834 835 835 834 834 833 833 833 833 833 833 833 832 832 831 831 830 829 829 827 825 824 823
723 727 730 732 736 739 742 745 747 750 752 755 758 760 762 764 766 767 769 771 772 774 777 780 783 785 787 789 791 792 793 793 794 796 799 801 804 806 808 810 812 814 816 819 821 823 824 825 826 826 827 828 829 829 830 830 831 831 832 832 832 832 832 832 832 831 831 831 831 831 830 830 831 831 831 830 830 829 829 828 827 826 825 824 822
725 728 730 732 735 738 741 745 747 749 752 754 757 760 762 764 765 767 768 770 772 774 776 778 781 783 785 786 787 788 789 790 792 795 798 800 802 804 806 808 810 812 815 818 820 821 822 823 823 824 825 825 826 826 827 828 828 829 829 829 829 829 829 830 829 829 829 829 829 829 828 828 828 829 828 828 828 828 827 827 826 825 824 823 821
726 729 731 733 736 738 741 745 747 749 751 753 756 759 762 765 767 768 769 770 772 774 776 778 780 781 783 784 786 787 789 790 792 794 796 798 800 802 804 806 808 810 813 815 817 818 819 820 820 821 822 823 823 824 825 826 826 826 826 826 827 827 827 827 827 827 827 827 826 827 827 826 827 827 826 826 826 825 825 825 825 824 823 821 820
725 729 732 734 737 739 741 743 746 749 751 754 756 759 761 763 766 768 769 770 772 774 775 777 779 780 781 783 785 786 788 789 790 792 794 796 798 800 802 804 806 808 811 813 814 815 816 817 818 818 819 820 820 821 822 823 823 824 824 824 824 824 824 824 824 825 825 824 824 824 824 824 824 824 824 824 824 823 823 823 823 822 821 820 819
723 727 731 733 736 737 739 741 744 747 750 752 754 757 758 760 762 764 766 769 771 773 774 776 777 778 780 782 783 784 786 787 789 790 792 794 796 798 800 801 803 806 808 810 811 812 813 814 815 815 816 816 817 818 819 820 820 821 821 821 821 822 822 822 823 822 822 822 822 822 822 822 822 821 821 822 821 821 821 821 821 820 819 818 817
723 726 728 729 731 733 734 736 739 743 746 749 751 753 754 756 758 761 763 765 768 770 772 773 775 776 778 780 781 783 784 786 787 789 791 792 794 796 798 800 802 804 805 806 807 808 810 811 811 812 812 813 815 816 816 817 818 818 818 819 819 819 820 820 820 820 820 820 820 819 819 819 819 819 819 819 819 820 819 819 819 818 817 817 816
723 725 726 726 726 727 729 731 733 735 739 742 745 748 751 753 756 758 759 760 762 764 767 769 772 774 776 778 779 781 782 784 786 787 789 791 792 794 796 797 799 801 802 803 804 805 806 807 807 808 809 810 812 813 813 814 815 815 815 816 816 817 817 817 817 817 817 817 817 816 816 817 817 817 817 817 817 818 817 817 816 816 816 815 814
720 723 724 725 725 726 728 730 731 733 734 736 738 742 746 750 753 755 756 758 760 762 765 767 769 772 774 776 777 779 781 782 784 786 787 789 790 792 793 794 795 797 798 799 800 801 803 803 804 805 806 807 809 810 810 811 812 812 813 813 814 814 814 814 815 815 815 815 814 814 814 815 815 815 816 816 816 815 815 814 814 814 814 813 812
718 720 722 723 725 726 728 730 732 734 736 738 740 742 745 748 751 754 755 757 759 761 764 765 767 769 772 774 776 778 779 781 783 784 786 787 788 788 789 790 791 793 794 795 797 798 799 800 801 803 804 805 806 807 808 809 809 810 810 811 811 811 811 812 812 812 812 812 812 812 813 813 813 814 814 814 813 813 812 812 812 812 812 811 811
716 717 719 722 724 726 727 729 731 733 737 740 742 743 745 747 750 753 754 756 757 760 762 763 764 766 768 770 773 776 778 779 781 782 783 784 785 785 786 787 788 790 791 792 794 795 796 797 799 800 801 802 803 804 805 806 806 807 807 807 808 808 809 809 810 810 810 810 810 811 811 811 811 812 812 811 811 811 811 810 810 810 810 809 809
715 717 719 721 723 725 727 728 730 732 735 738 740 742 743 746 748 751 752 754 756 758 760 761 762 763 765 767 770 773 775 776 777 778 779 780 781 782 784 785 786 787 788 790 791 792 793 795 796 797 798 799 800 801 802 803 803 804 804 804 805 805 806 806 807 807 807 808 808 809 809 809 809 810 810 809 809 809 809 809 808 808 808 807 807
715 717 719 721 723 724 726 728 729 731 733 736 738 739 741 743 745 747 749 751 753 755 757 758 759 760 762 764 767 769 770 771 772 774 775 776 778 779 781 781 783 784 785 787 788 789 790 791 793 794 795 796 797 798 799 800 800 801 801 802 802 802 803 803 804 804 805 805 806 806 806 807 807 807 807 807 807 807 807 806 806 806 806 805 804
715 717 718 719 721 723 725 727 729 730 732 734 736 737 739 740 742 743 745 747 749 751 754 755 755 756 758 760 762 765 766 767 768 770 772 773 774 776 777 778 779 781 782 783 785 786 787 788 790 791 792 793 794 795 796 797 797 797 798 798 799 799 800 800 801 801 802 802 803 803 804 804 805 805 805 805 805 804 804 804 804 804 803 803 802
714 715 717 719 720 722 724 726 727 729 730 732 734 736 737 739 740 741 743 744 746 748 750 751 752 754 755 757 759 762 763 764 765 767 769 770 771 772 773 775 776 777 778 779 781 782 784 785 786 788 789 790 791 791 792 793 794 794 795 795 795 796 797 797 798 798 799 800 800 801 801 802 802 802 802 802 802 802 802 802 802 802 801 801 800
712 713 715 717 719 721 723 724 726 728 729 730 732 734 735 737 739 740 741 742 744 745 747 748 750 751 752 754 757 759 761 762 763 764 765 767 768 769 770 771 772 774 775 776 777 779 781 782 783 785 786 787 787 788 789 790 790 791 791 792 793 793 794 794 795 796 796 797 798 798 799 799 799 799 799 800 800 799 799 799 799 799 799 798 798
711 712 714 716 717 719 721 722 724 726 728 729 731 732 734 735 737 738 739 740 742 743 744 745 747 748 749 751 754 757 758 759 760 761 762 764 765 766 767 768 769 771 772 773 774 776 778 779 780 782 783 784 785 786 787 787 787 787 788 789 790 791 792 792 792 793 794 794 795 796 796 796 797 797 796 797 797 797 797 797 797 796 796 796 795
709 711 713 714 716 718 719 720 722 724 726 728 730 731 733 734 735 736 737 738 739 741 742 744 746 747 747 749 751 753 755 756 757 758 759 761 761 762 764 765 766 768 769 770 771 773 774 776 777 778 780 781 782 783 784 785 785 785 785 787 788 788 789 790 790 791 791 791 792 792 793 793 793 793 793 793 794 794 794 794 794 794 793 793 793
708 709 711 713 714 716 718 719 721 722 724 726 728 729 731 733 734 735 736 737 739 741 743 745 746 746 745 746 748 749 751 753 754 755 757 758 759 760 761 762 763 765 765 767 768 770 771 772 774 775 776 778 779 780 781 782 783 783 784 785 785 786 786 787 788 788 788 788 789 789 790 790 790 790 790 790 790 791 791 791 791 791 791 790 790
709 710 711 713 714 716 718 720 721 722 723 725 726 729 731 734 735 736 736 737 739 741 742 743 744 744 744 745 747 747 748 750 751 753 754 756 757 758 759 760 760 762 763 764 765 766 767 769 770 771 773 775 776 777 778 779 780 781 782 782 783 783 783 784 785 785 785 786 786 786 786 786 786 786 786 787 787 788 788 788 788 788 788 788 787
708 709 711 713 715 717 719 720 721 722 722 723 725 727 730 732 733 734 735 736 738 739 740 740 741 742 744 745 746 746 746 748 749 750 752 753 755 756 757 757 758 759 760 761 762 763 764 765 766 767 769 771 772 774 775 776 777 778 778 779 780 780 781 782 782 782 783 783 783 784 784 783 783 783 783 783 784 784 784 785 785 785 785 784 784
708 709 710 712 714 717 718 719 720 721 722 723 725 726 728 729 730 731 732 733 734 736 736 737 738 739 740 742 743 744 744 745 747 748 750 751 753 754 755 755 756 756 757 758 759 760 761 762 763 764 765 767 769 770 771 772 773 774 775 776 776 777 778 779 779 779 780 780 780 781 781 781 780 780 780 780 781 781 781 781 781 781 781 781 781
708 709 710 712 714 715 717 718 719 720 721 723 724 725 726 727 728 729 730 731 731 733 734 735 735 736 738 739 740 741 742 742 744 746 747 749 750 751 752 753 754 754 754 755 756 757 758 759 760 761 762 763 765 767 768 769 770 771 772 773 773 774 775 776 776 776 777 777 777 777 777 777 777 777 777 777 778 778 778 778 778 778 778 778 778
709 710 711 712 713 715 716 717 718 719 720 722 723 723 724 725 726 727 728 729 730 731 732 733 733 734 736 737 738 739 739 740 741 743 744 746 747 748 749 750 750 751 752 752 753 754 755 757 758 759 760 761 762 763 765 766 767 768 769 770 771 771 772 772 773 773 774 774 774 774 774 773 774 774 774 774 775 775 775 775 775 775 775 775 775